Overview Statistics Trail Chart Weather Telemetry Raw packets
 

This is the latest recevied weather packets stored in our database for station/object N6GPM. If no packets are shown the sender has not sent any weather packets the latest 10 day(s).

<< 23 24 25 26 27 28 29 >>
Time Temp. Humidity Pressure Rain* Wind** Luminosity Snow
1788521047 15.56° C 89% 1016.6 hPa 0 mm - 0 W/m² -
1788520770 15.56° C 89% 1016.6 hPa 0 mm - 0 W/m² -
1788520438 15.56° C 89% 1016.6 hPa 0 mm - 0 W/m² -
1788520134 15.56° C 88% 1016.5 hPa 0 mm - 0 W/m² -
1788519833 15.56° C 87% 1016.6 hPa 0 mm - 0 W/m² -
1788519528 16.11° C 85% 1016.5 hPa 0 mm - 0 W/m² -
1788519222 16.11° C 82% 1016.5 hPa 0 mm - 0 W/m² -
1788518917 16.11° C 83% 1016.4 hPa 0 mm - 0 W/m² -
1788518613 15.56° C 86% 1016.6 hPa 0 mm - 0 W/m² -
1788518310 15.56° C 87% 1016.4 hPa 0 mm - 0 W/m² -
1788518009 15.56° C 87% 1016.4 hPa 0 mm - 0 W/m² -
1788517706 15.56° C 86% 1016.5 hPa 0 mm - 0 W/m² -
1788517401 15.56° C 85% 1016.5 hPa 0 mm - 0 W/m² -
1788517096 15.56° C 86% 1016.5 hPa 0 mm - 0 W/m² -
1788516793 16.11° C 85% 1016.2 hPa 0 mm - 0 W/m² -
1788516488 16.11° C 85% 1016.5 hPa 0 mm - 0 W/m² -
1788516184 15.56° C 85% 1016.4 hPa 0 mm - 0 W/m² -
1788515878 16.11° C 85% 1016.3 hPa 0 mm - 0 W/m² -
1788515573 16.11° C 85% 1016.4 hPa 0 mm - 0 W/m² -
1788515268 16.11° C 85% 1016.3 hPa 0 mm - 0 W/m² -
1788514963 16.11° C 84% 1016.2 hPa 0 mm - 0 W/m² -
1788514660 16.11° C 84% 1016.6 hPa 0 mm - 0 W/m² -
1788514359 16.11° C 84% 1016.3 hPa 0 mm - 0 W/m² -
1788514055 16.11° C 84% 1016.4 hPa 0 mm - 0 W/m² -
1788513751 16.11° C 83% 1016.6 hPa 0 mm - 0 W/m² -

* Rain latest hour (hover to see other rain measurements)
** Current wind speed in m/s (hover to see current wind gust speed)